Weather History for MRLB - December, 2013

Change the Weather History Date:

Tuesday, December 10, 2013

  Actual Average Record
Temperature  
Mean Temperature 79 °F -  
Max Temperature 91 °F 87 °F 94 °F (2012)
Min Temperature 67 °F 72 °F 66 °F (2010)
Cooling Degree Days 14    
Growing Degree Days 29 (Base 50)    
Moisture  
Dew Point 68 °F    
Average Humidity 60    
Maximum Humidity 88    
Minimum Humidity 34    
Precipitation  
Precipitation 0.00 in - - ()
Sea Level Pressure  
Sea Level Pressure 29.88 in    
Wind  
Wind Speed 4 mph ()    
Max Wind Speed 12 mph    
Max Gust Speed -    
Visibility 8.3 miles    
Events      
Averages and records for this station are not official NWS values.
T = Trace of Precipitation, MM = Missing Value Source: Averaged Metar Reports

Daily Weather History Graph

Daily Weather History Graph

Search for Another Location

Airport or City:

Trip Planner

Search our weather history database for the weather conditions in past years. The results will help you decide how hot, cold, wet, or windy it might be!

Date:

Astronomy

Dec. 10, 2013 Rise Set
Actual Time 5:49 AM CST 5:20 PM CST
Civil Twilight 5:26 AM CST 5:43 PM CST
Nautical Twilight 5:00 AM CST 6:09 PM CST
Astronomical Twilight 4:34 AM CST 6:36 PM CST
Moon 12:27 PM CST (12/10) 12:06 AM CST (12/10)
Length of Visible Light 12h 16m
Length of Day
11h 31m
Waxing Gibbous, 62% of the Moon is Illuminated
Dec 10
Waxing Gibbous
Dec 17
Full
Dec 25
Last Quarter
Jan 1
New
Jan 7
First Quarter

Hourly Weather History & Observations

Time (CST) Temp. Heat Index Dew Point Humidity Pressure Visibility Wind Dir Wind Speed Gust Speed Precip Events Conditions
6:00 AM 68 °F - 65 °F 87% 29.92 in 12 mi West 3.5 mph - -   Clear
6:00 AM 68.0 °F - 64.4 °F 88% 29.89 in - West 3.5 mph - N/A   Clear
7:00 AM 73.4 °F - 68.0 °F 83% 29.91 in - SSW 2.3 mph - N/A   Clear
8:00 AM 77.0 °F - 68.0 °F 74% 29.93 in - NNW 2.3 mph - N/A   Clear
9:00 AM 82 °F - 68 °F 55% 29.97 in 12 mi NE 2.3 mph - -   Clear
9:00 AM 82.4 °F 85.4 °F 68.0 °F 62% 29.94 in 6.2 mi NE 2.3 mph - N/A   Scattered Clouds
10:00 AM 86.0 °F 89.4 °F 68.0 °F 55% 29.93 in 6.2 mi NE 9.2 mph - N/A   Partly Cloudy
11:00 AM 89.6 °F 93.4 °F 68.0 °F 49% 29.91 in 6.2 mi East 9.2 mph - N/A   Partly Cloudy
12:00 PM 89 °F - 66 °F 36% 29.92 in 12 mi East 11.5 mph - -   Scattered Clouds
12:00 PM 89.6 °F 92.2 °F 66.2 °F 46% 29.89 in 6.2 mi East 11.5 mph - N/A   Partly Cloudy
1:00 PM 91.4 °F 94.0 °F 66.2 °F 43% 29.86 in 6.2 mi East 11.5 mph - N/A   Partly Cloudy
2:00 PM 89.6 °F 93.4 °F 68.0 °F 49% 29.83 in 6.2 mi East 9.2 mph - N/A   Partly Cloudy
3:00 PM 91 °F - 66 °F 34% 29.85 in 12 mi ESE 4.6 mph - -   Partly Cloudy
3:00 PM 91.4 °F 94.0 °F 66.2 °F 43% 29.81 in 6.2 mi ESE 4.6 mph - N/A   Scattered Clouds
4:00 PM 89.6 °F 92.2 °F 66.2 °F 46% 29.81 in 6.2 mi East 6.9 mph - N/A   Partly Cloudy
5:00 PM 87.8 °F 91.4 °F 68.0 °F 52% 29.82 in 6.2 mi East 4.6 mph - N/A   Scattered Clouds
6:00 PM 80 °F - 72 °F 69% 29.88 in 12 mi North 3.5 mph - -   Clear
6:00 PM 80.6 °F 84.6 °F 71.6 °F 74% 29.84 in - North 3.5 mph - N/A   Clear
7:00 PM 78.8 °F - 71.6 °F 78% 29.86 in - SSW 3.5 mph - N/A   Clear
8:00 PM 77.0 °F - 69.8 °F 78% 29.87 in - Calm Calm - N/A   Clear